Regional Weather Roundup
Issued by NWS

Home | Current Version | Previous Version | Graphics & Text | Print | Product List | Glossary On
Versions: 1 2 3 4 5 6 7 8 9 10 11 12 13 14 15 16 17 18 19 20 21 22 23 24 25 26 27 28 29 30 31 32 33 34 35 36 37 38 39 40 41 42 43 44 45 46 47 48 49 50
000
ASUS43 KIND 172359
RWRIN

WEATHER ROUNDUP FOR INDIANA
NATIONAL WEATHER SERVICE INDIANAPOLIS IN
800 PM EDT WED SEP 17 2014

NOTE: "FAIR" INDICATES FEW OR NO CLOUDS BELOW 12,000 FEET WITH NO
SIGNIFICANT WEATHER AND/OR OBSTRUCTIONS TO VISIBILITY.

* - STATION DOES NOT REPORT WEATHER SUCH AS PRECIPITATION OR FOG.

+ - STATION NOT QUALITY CONTROLLED BY THE NATIONAL WEATHER SERVICE.
    USE DATA WITH CAUTION...ESPECIALLY DEWPOINT AND RELATIVE
    HUMIDITY OBSERVATIONS.

INZ001>003-010>013-019-020-180100-
NORTHWEST INDIANA

CITY           SKY/WX    TMP DP  RH WIND       PRES   REMARKS
GARY /AIRPORT/ CLEAR     63  48  59 E7        29.99R
VALPARAISO     CLEAR     60  49  66 NE3       29.99R
6HR MIN TEMP:  60; 6HR MAX TEMP:  69;


$$

LMZ046-743>745-180100-
SOUTHERN LAKE MICHIGAN

STATION/POSITION TIME  TEMP WIND        PRES
                       AIR  DIR/SP/G
                 (UTC) (F)  (DEG/KT/KT) (MB)
MICHIGAN CITY    2300   62   30/ 11/ 12   N/A

$$

INZ004-005-014>016-021>024-180100-
NORTH CENTRAL INDIANA

CITY           SKY/WX    TMP DP  RH WIND       PRES   REMARKS
ELKHART        CLEAR     61  43  51 NW3       30.00S
GOSHEN         CLEAR     61  45  55 N8        29.99R
6HR MIN TEMP:  61; 6HR MAX TEMP:  69;

PERU/GRISSOM   CLEAR     64  53  68 CALM      29.97S HAZE
6HR MIN TEMP:  63; 6HR MAX TEMP:  70;

SOUTH BEND     CLEAR     59  45  59 N6        30.01R
6HR MIN TEMP:  58; 6HR MAX TEMP:  69;

WARSAW +       CLEAR     59  48  67 CALM      29.99R HAZE

$$

INZ006>009-017-018-025>027-180100-
NORTHEAST INDIANA

CITY           SKY/WX    TMP DP  RH WIND       PRES   REMARKS
ANGOLA *+      CLEAR     57  50  77 CALM      29.99S
FORT WAYNE     PTCLDY    60  49  66 CALM      29.99S
6HR MIN TEMP:  58; 6HR MAX TEMP:  68;


$$

INZ028-029-035-036-043>045-051>053-180100-
WEST CENTRAL INDIANA

CITY           SKY/WX    TMP DP  RH WIND       PRES   REMARKS
GREENCASTLE +  PTCLDY    59  52  77 CALM      29.97F
LAFAYETTE      CLEAR     59  53  80 N3        29.96F
6HR MIN TEMP:  59; 6HR MAX TEMP:  68;

TERRE HAUTE    CLOUDY    61  53  75 CALM      29.97S
6HR MIN TEMP:  61; 6HR MAX TEMP:  68;


$$

INZ030>032-037>040-046>048-054>057-064-065-180100-
CENTRAL INDIANA

CITY           SKY/WX    TMP DP  RH WIND       PRES   REMARKS
COLUMBUS       PTCLDY    59  54  82 MISG      29.98F
FRANKFORT +    CLEAR     61  53  75 CALM      29.98F
INDIANAPOLIS   PTCLDY    62  49  62 CALM      29.96F
6HR MIN TEMP:  60; 6HR MAX TEMP:  67;

-EAGLE CREEK   CLEAR     62  49  62 SE3       29.96F
6HR MIN TEMP:  62; 6HR MAX TEMP:  67;

KOKOMO *+      CLEAR     59  52  77 NE3       29.97S
MT COMFORT *+  PTCLDY    59  48  67 CALM      29.99S
SHELBYVILLE    PTCLDY    61  51  70 CALM      29.97F
6HR MIN TEMP:  61; 6HR MAX TEMP:  69;


$$

INZ033-034-041-042-049-050-058-059-180100-
EAST CENTRAL INDIANA

CITY           SKY/WX    TMP DP  RH WIND       PRES   REMARKS
MUNCIE         PTCLDY    61  48  62 CALM      29.98S
6HR MIN TEMP:  60; 6HR MAX TEMP:  67;


$$

INZ060-061-067>069-081>083-085>088-180100-
SOUTHWEST INDIANA

CITY           SKY/WX    TMP DP  RH WIND       PRES   REMARKS
EVANSVILLE     PTCLDY    65  54  67 N3        29.97R
6HR MIN TEMP:  65; 6HR MAX TEMP:  71;


$$

INZ062-063-066-070>080-084-089>092-180100-
SOUTH CENTRAL AND SOUTHEAST INDIANA

CITY           SKY/WX    TMP DP  RH WIND       PRES   REMARKS
BLOOMINGTON    CLOUDY    61  53  75 E3        29.97F
6HR MIN TEMP:  60; 6HR MAX TEMP:  67;


$$



USA.gov is the U.S. government's official web portal to all federal, state and local government web resources and services.